Regional Weather Roundup
Issued by NWS

Home | Current Version | Previous Version | Graphics & Text | Print | Product List | Glossary On
Versions: 1 2 3 4 5 6 7 8 9 10 11 12 13 14 15 16 17 18 19 20 21 22 23 24 25 26 27 28 29 30 31 32 33 34 35 36 37 38 39 40 41 42 43 44 45 46 47 48 49 50
000
ASUS43 KBIS 260810
RWRND

NORTH DAKOTA REGIONAL WEATHER ROUNDUP
NATIONAL WEATHER SERVICE BISMARCK ND
200 AM CST SUN FEB 26 2017

NOTE: "FAIR" INDICATES FEW OR NO CLOUDS BELOW 12,000 FEET WITH NO
SIGNIFICANT WEATHER AND/OR OBSTRUCTIONS TO VISIBILITY.


NDZ001>003-009>011-017-260900-
NORTHWEST NORTH DAKOTA

CITY           SKY/WX    TMP DP  RH WIND       PRES   REMARKS
WILLISTON      CLOUDY     5   2  87 NE3       29.72F FOG
MINOT          FAIR       2  -1  88 W5        29.72R WCI  -8
MINOT AFB      PTCLDY    -2  -6  84 NW6       29.72R WCI -14
$$

NDZ018>021-031>035-040>046-260900-
SOUTHWEST NORTH DAKOTA

CITY           SKY/WX    TMP DP  RH WIND       PRES   REMARKS
BISMARCK       FAIR      17  12  80 NW9       29.72R WCI   6
DICKINSON      FLURRIES  15  12  88 E6        29.65R WCI   6
GARRISON         N/A      6   3  87 NW7       29.71R WCI  -6
HETTINGER ARPT CLEAR     12   9  87 NW6       29.67S WCI   3
$$

NDZ004>008-012>016-024-026-027-054-260900-
NORTHEAST NORTH DAKOTA

CITY           SKY/WX    TMP DP  RH WIND       PRES   REMARKS
GRAND FORKS    LGT SNOW  14   7  73 N15       29.74R WCI  -1
GRND FRKS AFB  FLURRIES  13  10  85 N8        29.73S WCI   2
DEVILS LAKE    CLOUDY     9   6  88 N6        29.72R WCI  -1
$$

NDZ022-023-025-028>030-036>039-047>053-260900-
SOUTHEAST NORTH DAKOTA

CITY           SKY/WX    TMP DP  RH WIND       PRES   REMARKS
FARGO          CLOUDY    23  20  88 N6        29.68S WCI  16
JAMESTOWN      MOCLDY    22  19  89 NW10      29.64S WCI  11
$$





USA.gov is the U.S. government's official web portal to all federal, state and local government web resources and services.